Location: Clayton (historical)
(34.0300°N, 118.0259°W)
Time: 10:50:27
(UTC+00:00)

Hubble Space Telescope - Pass Details

Date: 29 January 2021
Orbit: 536 x 539 km, 28.5° (Epoch: 26 February)

Event Time Altitude Azimuth Distance (km) Brightness Sun altitude
Rises 02:10:06 0° 259° (W) 2,672 6.6 -10.9°
Reaches altitude 10° 02:13:22 10° 232° (SW) 1,780 4.6 -11.5°
Maximum altitude 02:15:23 13° 202° (SSW) 1,575 3.6 -11.9°
Drops below altitude 10° 02:17:25 10° 173° (S) 1,778 3.5 -12.4°
Sets 02:20:41 0° 146° (SE) 2,667 4.1 -13.0°
